Location: *
(43.6428°N, 11.5461°E)
Time: 00:52:57
(UTC+00:00)

Cosmos 1937 Rocket - Pass Details

Date: 21 October 2019
Orbit: 747 x 780 km, 74.0° (Epoch: 15 November)

Event Time Altitude Azimuth Distance (km) Brightness Sun altitude
Rises 17:52:05 0° 348° (NNW) 3,204 6.9 -17.1°
Reaches altitude 10° 17:54:46 10° 359° (N) 2,274 6.0 -17.6°
Maximum altitude 17:59:13 29° 59° (ENE) 1,360 4.3 -18.4°
Enters shadow 17:59:14 29° 60° (ENE) 1,360 4.3 -18.4°
